Погода в Каменном Бору

Россия / Республика Карелия     63°55′36″N   34°11′00″E
темп.,
°C
ветер,
м/с
пор.,
м/с
влажн.,
%
обл.,
%
осадки,
мм/ч
давл.,
гПа
погр.,
м
14 мая, пт
пт1400:00+15ююв25695 0.0 101390
03:00+14ююв227658 0.0 101220
06:00+15всв12761 0.9 101066
09:00+19юв236069 1.9 1009529
12:00+16ююв3577100 1.7 1010438
15:00+13ююв3790100 3.1 1010329
18:00+13ююз368294 3.2 1011655
21:00+12ю3687100 3.2 1011369
15 мая, сб
сб1500:00+11ююв2493100 0.1 1012191
03:00+10вюв1194100 0.1 101294
06:00+8ссв3594100 0.0 1013241
09:00+7ссв3491100 0.1 1013257
12:00+8ссв338698 0.0 1014331
15:00+10ссв348148 0.0 1013367
18:00+11св45766 0.0 1012407
21:00+7ссв379049 0.0 1011242
16 мая, вс
вс1600:00+5ссв389671 0.0 1010198
03:00+6ссв41094100 0.0 1009242
06:00+6ссв41092100 0.0 1008269
09:00+8ссв4783100 0.0 1008364
12:00+12ссв5768100 0.0 1008548
15:00+13ссв4566100 0.0 1009578
18:00+11ссв457199 0.0 1009509
21:00+7ссв3686100 0.0 1011306
17 мая, пн
пн1700:00+5ссв3687100 0.0 1012236
03:00+5ссв3782100 0.0 1013261
06:00+6ссв2577100 0.0 1014250
09:00+9св2368100 0.0 1015390
12:00+14св225264 0.0 1016754
15:00+17всв224590 0.0 10161060
18:00+16всв345225 0.0 1015515
21:00+11всв36705 0.0 1016206
18 мая, вт
вт1800:00+8всв37804 0.0 1016139
03:00+8всв3881100 0.0 1015152
06:00+11всв388063 0.0 1013197
09:00+17вюв5965100 0.0 1011731
12:00+21вюв61152100 0.0 10081206
15:00+23юв7135186 0.0 10061641
18:00+18ююз41081100 1.8 1005685
21:00+14юз4879100 1.8 1007648